Location: São Paulo
(23.5507°S, 46.6334°W)
Time: 07:34:55
(UTC-03:00)

Vanguard 3 - Pass Details

Date: 21 February 2026
Orbit: 507 x 3205 km, 33.4° (Epoch: 7 March)

Event Time Altitude Azimuth Distance (km) Brightness Sun altitude
Exits shadow 01:33:37 20° 104° (ESE) 2,895 10.1 -51.4°
Drops below altitude 10° 01:36:53 10° 110° (ESE) 4,003 11.0 -51.1°
Sets 01:41:17 0° 113° (ESE) 5,469 11.9 -50.5°
